AirNav   Everest Fuels
 
 486 users online  

L05 Kern Valley Airport
Kernville, California, USA

GOING TO KERNVILLE?


FAA INFORMATION EFFECTIVE 16 JULY 2020

Location

FAA Identifier: L05
Lat/Long: 35-43-41.6000N 118-25-11.0000W
35-43.693333N 118-25.183333W
35.7282222,-118.4197222
(estimated)
Elevation: 2614 ft. / 796.7 m (surveyed)
Variation: 14E (1985)
From city: 3 miles S of KERNVILLE, CA
Time zone: UTC -7 (UTC -8 during Standard Time)
Zip code: 93238

Airport Operations

Airport use: Open to the public
Activation date: 07/1949
Control tower: no
ARTCC: LOS ANGELES CENTER
FSS: RANCHO MURIETA FLIGHT SERVICE STATION
NOTAMs facility: RIU (NOTAM-D service available)
Attendance: DAYLIGHT HOURS
Wind indicator: yes
Segmented circle: yes

Airport Communications

CTAF/UNICOM: 122.8

Nearby radio navigation aids

VOR radial/distance  VOR name  Freq  Var
TTEr095/31.3TULE VOR/DME109.2016E
EHFr052/36.1SHAFTER VORTAC115.4014E

Airport Services

Parking: tiedowns
Airframe service: MINOR
Powerplant service: MINOR
Bottled oxygen: NONE
Bulk oxygen: NONE

Runway Information

Runway 17/35

Dimensions: 3500 x 50 ft. / 1067 x 15 m
Surface: asphalt, in good condition
Weight bearing capacity: 
Single wheel: GROSS RWY PAVEMENT STRENGTH ESTIMATE PRVDD BY ARPT MANAGER; 12500 LBS.
RUNWAY 17  RUNWAY 35
Latitude: 35-43.980500N35-43.405333N
Longitude: 118-25.154333W118-25.211000W
Traffic pattern: rightleft
Markings: basic, in good conditionbasic, in good condition
Runway end identifier lights: nono
Obstructions: 10 ft. trees, 375 ft. from runway, 100 ft. right of centerline, 17:1 slope to clearnone
RWY 35 +1 FT ROCKS O-90 FT FM EOR 50 FT L TO 80 FT R PRVDG WASHOUT PROTECTION FM LAKE; +5 FT BRUSH 180-200 FT FM EOR 0 FT L.

Airport Ownership and Management from official FAA records

Ownership: Publicly-owned
Owner: COUNTY OF KERN DEPT OF AIRPORTS
3701 WINGS WAY, SUITE 300
BAKERSFIELD, CA 93308-7026
Phone 661-391-1800
OWNED BY US FOREST SVC ON LEASE TO KERN COUNTY.
Manager: RON BREWSTER
3701 WINGS WAY, SUITE 300
BAKERSFIELD, CA 93308-7026
Phone 661-391-1824
CELL 661-747-4053.

Airport Operational Statistics

Aircraft based on the field: 7
Single engine airplanes: 7
    
Aircraft operations: avg 32/day *
54% transient general aviation
44% local general aviation
2% military
* for 12-month period ending 13 February 2020

Additional Remarks

NO NIGHT OPERATIONS.
FLY-IN CAMPGROUND ON ARPT.
FOR CD CTC JOSHUA APCH AT 661-277-3843.

Instrument Procedures

There are no published instrument procedures at L05.

Some nearby airports with instrument procedures:

KIYK - Inyokern Airport (29 nm E)
KNID - China Lake Naval Air Weapons Station (Armitage Field) (36 nm E)
KBFL - Meadows Field Airport (36 nm SW)
KPTV - Porterville Municipal Airport (36 nm NW)
L45 - Bakersfield Municipal Airport (37 nm SW)
 
Loc | Ops | Rwys | IFR | FBO | Links
Com | Nav | Svcs | Stats | Notes
Area around L05 (Kern Valley Airport)
 
Road maps at: MapQuest Bing Google
 
Aerial photo
WARNING: Photo may not be current or correct
Aerial photo of L05 (Kern Valley Airport)
Photo courtesy of www.MarkHoltzman.com
Photo taken 12-Nov-2017
looking west.

Do you have a better or more recent aerial photo of Kern Valley Airport that you would like to share? If so, please send us your photo.

 
Sectional chart

 
Airport distance calculator
Flying to Kern Valley Airport? Find the distance to fly.

From to L05

Sunrise and sunset
Times for 11-Aug-2020
 Local
(UTC-7)
 Zulu
(UTC)
Morning civil twilight05:4412:44
Sunrise06:1113:11
Sunset19:4602:46
Evening civil twilight20:1303:13

Current date and time
Zulu (UTC)  12-Aug-2020 06:19:44
Local (UTC-7)  11-Aug-2020 23:19:44
 
METAR
KBFL 
35nm SW 
120554Z 35009KT 10SM CLR 29/07 A2984 RMK AO2 SLP098 T02890072 10378 20283 51019
KTSP 
36nm S 
120555Z AUTO 27006KT 10SM CLR 19/07 A3009 RMK AO2
KPTV 
36nm NW 
120556Z AUTO 21005KT 10SM CLR 25/16 A2985 RMK AO2 SLP103 T02500156 10372 20250 51019
KNID 
37nm E 
120556Z AUTO 22010KT 10SM CLR 30/03 A2987 RMK AO2 SLP089 6//// T03000033 10400 20300 50015 PNO $
KDLO 
40nm W 
120555Z AUTO 29004KT 10SM CLR 26/06 A2984 RMK AO2 T02590061 10361 20259
KMHV 
42nm S 
120540Z AUTO 24008KT 10SM CLR 27/08 A2996 RMK A01
TAF
KBFL 
35nm SW 
120520Z 1206/1306 VRB06KT P6SM SKC FM122000 31011KT P6SM SKC
KNID 
37nm E 
1123/1223 18008G16KT 9999 FEW100 510009 QNH2975INS WND 160V240 TEMPO 1123/1203 21014G24KT BECMG 1203/1205 24009KT 9999 SKC 500000 QNH2980INS BECMG 1214/1216 VRB05KT 9999 SKC QNH2990INS T21/1213Z T42/1222Z LAST NO AMDS AFT 1205 NEXT 1215
NOTAMs
Click for the latest NOTAMs
NOTAMs are issued by the DoD/FAA and will open in a separate window not controlled by AirNav.

 

 
 

Where to Eat: Catering, Restaurants, Food shops

  
 Business Name 
 
 Contact 
 
 Services / Description 
 
Distance
 
Comments
  
Airport Cafe 760-376-2852
no information available

If you are affiliated with Airport Cafe and would like to show here your services, contact info, web link, logo, and more, click here
on airport  
   1 read write
 

Would you like to see your business listed on this page?

 If your business provides an interesting product or service to pilots, flight crews, aircraft, or users of the Kern Valley Airport, you should consider listing it here.  To start the listing process, click on the button below
 
Add a business
 

Other Pages about Kern Valley Airport

Update a link
 
Copyright © AirNav, LLC. All rights reserved. Privacy Policy  Contact